Regional Weather Roundup
Issued by NWS

Home | Current Version | Previous Version | Text Only | Print | Product List | Glossary Off
Versions: 1 2 3 4 5 6 7 8 9 10 11 12 13 14 15 16 17 18 19 20 21 22 23 24 25 26 27 28 29 30 31 32 33 34 35 36 37 38 39 40 41 42 43 44 45 46 47 48 49 50

000
ASUS43 KIND 011109
RWRIN

WEATHER ROUNDUP FOR INDIANA
NATIONAL WEATHER SERVICE INDIANAPOLIS IN
700 AM EDT WED APR 01 2015

NOTE: "FAIR" INDICATES FEW OR NO CLOUDS BELOW 12,000 FEET WITH NO
SIGNIFICANT WEATHER AND/OR OBSTRUCTIONS TO VISIBILITY.

* - STATION DOES NOT REPORT WEATHER SUCH AS PRECIPITATION OR FOG.

+ - STATION NOT QUALITY CONTROLLED BY THE NATIONAL WEATHER SERVICE.
    USE DATA WITH CAUTION...ESPECIALLY DEWPOINT AND RELATIVE
    HUMIDITY OBSERVATIONS.

INZ001>003-010>013-019-020-011200-
NORTHWEST INDIANA

CITY           SKY/WX    TMP DP  RH WIND       PRES   REMARKS
GARY /AIRPORT/ CLEAR     43  32  65 SW8       30.01R
KNOX *+        CLEAR     34  23  64 CALM      30.01R
LA PORTE +     PTCLDY    37  32  83 SW6       30.01R
MICHIGAN CITY+ CLEAR     41  30  65 S5        30.01R
MONTICELLO +   CLEAR     37  32  82 S5        30.02R
RENSSELAER +   CLEAR     36  34  93 SW6       30.03R
VALPARAISO     CLEAR     36  30  79 SW3       30.02R

$$

LMZ046-743>745-011200-
SOUTHERN LAKE MICHIGAN

STATION/POSITION TIME  TEMP WIND        PRES
                       AIR  DIR/SP/G
                 (UTC) (F)  (DEG/KT/KT) (MB)
BURNS HARBOR     1100   42  180/ 11/ 14 1016.3R
MICHIGAN CITY    1100   43  170/  8/ 10   N/A

$$

INZ004-005-014>016-021>024-011200-
NORTH CENTRAL INDIANA

CITY           SKY/WX    TMP DP  RH WIND       PRES   REMARKS
ELKHART        CLEAR     30  28  93 CALM      30.02
GOSHEN         CLEAR     36  30  79 S3        30.02R
LOGANSPORT +   CLEAR     32  32 100 CALM      30.04R
PERU/GRISSOM   CLEAR     37  33  84 S6        30.01R
ROCHESTER +    CLEAR     39  34  81 S3        30.03R
SOUTH BEND     CLEAR     37  29  72 S3        30.02R
WARSAW +       CLEAR     34  32  93 CALM      30.02R

$$

INZ006>009-017-018-025>027-011200-
NORTHEAST INDIANA

CITY           SKY/WX    TMP DP  RH WIND       PRES   REMARKS
ANGOLA *+      CLEAR     30  30 100 CALM      30.02R
AUBURN +       CLEAR     34  32  93 CALM      30.03R FOG
FORT WAYNE     CLEAR     32  29  88 SW3       30.03R
HUNTINGTON +   CLEAR     33  29  85 CALM      30.03R

$$

INZ028-029-035-036-043>045-051>053-011200-
WEST CENTRAL INDIANA

CITY           SKY/WX    TMP DP  RH WIND       PRES   REMARKS
CRAWFORDSVL +  CLEAR     35  28  75 CALM      30.05R
GREENCASTLE +  CLEAR     37  30  75 S3        30.06R
LAFAYETTE      CLEAR     37  32  82 CALM      30.04R
TERRE HAUTE    CLEAR     41  33  73 SE5       30.06R

$$

INZ030>032-037>040-046>048-054>057-064-065-011200-
CENTRAL INDIANA

CITY           SKY/WX    TMP DP  RH WIND       PRES   REMARKS
CP ATTERBURY + CLEAR     32  30  93 CALM      30.07R
COLUMBUS       CLEAR     32  30  93 S3        30.08
FISHERS *+     CLEAR     36  36 100 S6        30.06R
FRANKFORT +    CLEAR     35  33  90 SE6       30.05R WCI  30
GREENWOOD *+   CLEAR     37  32  81 S6        30.07R
INDIANAPOLIS   CLEAR     38  32  79 S5        30.04R
-EAGLE CREEK   CLEAR     37  33  85 CALM      30.05R
KOKOMO *+        N/A     36  30  80 S8        30.03R
MARION +       CLEAR     33  31  90 S6        30.04R WCI  28
MT COMFORT *+  CLEAR     36  36 100 S5        30.06R
SHELBYVILLE    CLEAR     38  33  82 S8        30.06R
ZIONSVILLE +   CLEAR     37  32  82 S6        30.05R

$$

INZ033-034-041-042-049-050-058-059-011200-
EAST CENTRAL INDIANA

CITY           SKY/WX    TMP DP  RH WIND       PRES   REMARKS
MUNCIE         CLEAR     37  33  85 SW7       30.04R

$$

INZ060-061-067>069-081>083-085>088-011200-
SOUTHWEST INDIANA

CITY           SKY/WX    TMP DP  RH WIND       PRES   REMARKS
EVANSVILLE     CLEAR     43  36  76 CALM      30.08R
HUNTINGBURG *+ CLEAR     45  34  65 SE3       30.08R
WASHINGTON +   CLEAR     38  34  87 SE6       30.07R

$$

INZ062-063-066-070>080-084-089>092-011200-
SOUTH CENTRAL AND SOUTHEAST INDIANA

CITY           SKY/WX    TMP DP  RH WIND       PRES   REMARKS
BEDFORD +      CLEAR     41  34  75 SE5       30.08
BLOOMINGTON    CLEAR     41  34  76 SE6       30.06R
MADISON *+     CLEAR     37  32  81 CALM      30.10R
NORTH VERNON + CLEAR     37  37 100 CALM      30.08R
SEYMOUR +      CLEAR     32  30  93 CALM      30.08R

$$



USA.gov is the U.S. government's official web portal to all federal, state and local government web resources and services.